map of BIA home
BIA - Airport
Location
City:  Bastia, Corse (Corsica), France
Name:Poretta
ICAO:LFKB
IATA:BIA

Details
Type:Airport (Aerodrome, Airfield)
Use:Public/Civil
Latitude:4233'00"N (42.550000)
Longitude:929'05"E (9.484722)
Elevation:26 ft (8 m)
Variation:2.75E (WMM2015v2 magnetic declination)
0.14 annual change
Runways:1
Longest:8268 × 148 ft (2520 × 45 m), paved

Time
Time Zone:UTC+1 (DST+2)
Local Time:

Weather
METAR:LFKB 041400Z AUTO 35015KT 9999 BKN038 13/07 Q1021 NOSIG
TAF:LFKB 041400Z 0415/0515 34015KT 9999 SCT033 TX14/0513Z TN04/0504Z
BECMG 0418/0421 34006KT CAVOK
BECMG 0508/0511 02010KT

Related Locations
Nearby:
Farthest:CHT: 12128 mi / 19517 km
Waitangi [Tuuta], CIT, NZ

Find:

   beyond  
but within

Other Information
Maps:
NOTAMs:
Links:
Sources:

  
  • flag of France
  • flag of Corse (Corsica)
  

Sectional Chart

Flight Planning
at skyvector.com

Satellite Image

Google Maps Satellite view

 

Copyright © 2004-2019 Karl L. Swartz. All rights reserved.
The Great Circle Mapper name and logo are trademarks of the Great Circle Mapper.
All other trademarks mentioned herein belong to their respective owners.
Please see credits for attibutions and further copyright information.

  Follow gcmap on Facebook Follow gcmap on Twitter GCmap on LinkedIn

hCard Microformat

Geo Microformat